Location: Saint-Maurice-d�Ard�che
(44.5216°N, 4.4002°E)
Time: 22:44:11
(UTC+00:00)

SPOT 3 Rocket - Pass Details

Date: 30 March 2020
Orbit: 779 x 794 km, 98.8° (Epoch: 05 June)

Event Time Altitude Azimuth Distance (km) Brightness Sun altitude
Exits shadow 19:29:47 14° 152° (SSE) 2,093 5.3 -15.0°
Maximum altitude 19:34:15 66° 72° (ENE) 865 3.5 -15.7°
Drops below altitude 10° 19:39:26 10° 351° (N) 2,369 6.5 -16.5°
Sets 19:41:47 0° 349° (N) 3,301 7.3 -16.9°
